Location: Unspecified
(45.3712°N, 0.6436°E)
Time: 16:46:54
(UTC+02:00)

ISS - Pass Details

Date: 19 July 2018
Orbit: 402 x 408 km, 51.6° (Epoch: 20 July)

Event Time Altitude Azimuth Distance (km) Brightness Sun altitude
Rises 03:04:16 0° 291° (WNW) 2,329 0.1 -22.3°
Reaches altitude 10° 03:06:33 10° 304° (NW) 1,469 -0.8 -22.2°
Maximum altitude 03:09:25 27° 4° (N) 833 -1.6 -22.1°
Drops below altitude 10° 03:12:16 10° 64° (ENE) 1,471 -0.4 -21.9°
Sets 03:14:34 0° 77° (ENE) 2,332 0.4 -21.8°
